Location: Emory University Observatory
(33.7903°N, 84.3267°W)
Time: 09:53:35
(UTC-05:00)

Vanguard 2 - Visible Passes

Search period start: 16 December 2017 00:00
Search period end: 26 December 2017 00:00
Orbit: 553 x 2939 km, 32.9° (Epoch: 15 December)

Date Brightness Start Highest point End Pass type
(mag) Time Alt. Az. Time Alt. Az. Time Alt. Az.
16 Dec 7.8 19:08:46 10° W 19:13:35 48° SSW 19:15:09 31° SE visible
17 Dec 8.3 19:27:07 10° W 19:31:30 34° SSW 19:32:37 29° S visible
18 Dec 8.9 19:45:40 10° W 19:49:22 23° SSW 19:50:08 21° SSW visible
19 Dec 8.1 17:53:04 10° W 17:59:39 61° SSW 18:04:03 10° ESE visible
19 Dec 9.5 20:04:42 10° WSW 20:07:09 14° SW 20:07:45 14° SSW visible
20 Dec 8.5 18:11:27 10° W 18:17:37 46° SSW 18:21:53 10° SE visible
21 Dec 9.1 18:29:55 10° W 18:35:28 33° SSW 18:39:29 10° SE visible
22 Dec 9.7 18:48:36 10° W 18:53:13 23° SW 18:56:47 10° SSE visible
23 Dec 10.0 19:07:49 10° WSW 19:10:52 15° SW 19:13:27 10° S visible
